Overview Statistics Trail Chart Weather Telemetry Raw packets
 

This is the latest recevied weather packets stored in our database for station/object DL4SAV. If no packets are shown the sender has not sent any weather packets the latest 10 day(s).

<< 111 112 113 114 115 116 >>
Time Temp. Humidity Pressure Rain* Wind** Luminosity Snow
1787765136 28.33° C 47% 1015.9 hPa 0 mm - - -
1787764839 28.33° C 46% 1016.1 hPa 0 mm - - -
1787764535 28.89° C 46% 1016 hPa 0 mm - - -
1787764235 28.89° C 44% 1015.8 hPa 0 mm - - -
1787763935 29.44° C 43% 1015.8 hPa 0 mm - - -
1787763634 30° C 42% 1015.8 hPa 0 mm - - -
1787763334 30.56° C 42% 1015.8 hPa 0 mm - - -
1787763034 31.11° C 41% 1016 hPa 0 mm - - -
1787762734 31.67° C 40% 1016 hPa 0 mm - - -
1787762433 32.78° C 39% 1016.1 hPa 0 mm - - -
1787762133 33.33° C 39% 1015.9 hPa 0 mm - - -
1787761833 33.89° C 38% 1015.9 hPa 0 mm - - -
1787761532 33.89° C 38% 1015.9 hPa 0 mm - - -
1787761232 33.89° C 39% 1015.8 hPa 0 mm - - -
1787760932 33.33° C 40% 1015.9 hPa 0 mm - - -
1787760632 32.78° C 40% 1015.7 hPa 0 mm - - -
1787760331 32.22° C 41% 1015.7 hPa 0 mm - - -
1787760031 31.67° C 43% 1015.6 hPa 0 mm - - -
1787759731 31.11° C 44% 1015.7 hPa 0 mm - - -
1787759430 30.56° C 44% 1015.8 hPa 0 mm - - -
1787759130 30° C 45% 1016 hPa 0 mm - - -
1787758830 29.44° C 45% 1016 hPa 0 mm - - -
1787758530 29.44° C 46% 1016 hPa 0 mm - - -
1787758229 28.89° C 46% 1016.1 hPa 0 mm - - -
1787757929 28.89° C 46% 1016.1 hPa 0 mm - - -

* Rain latest hour (hover to see other rain measurements)
** Current wind speed in m/s (hover to see current wind gust speed)